LAPAN-TUBSAT

Last updated on Thu Jul 03 2025 00:02:29 GMT+0000 (Coordinated Universal Time)

1 29709U 07001A 25183.57045648 .00000377 00000+0 50429-4 0 9993 2 29709 98.1101 170.5183 0011034 240.7279 119.2833 14.85361699999246
UTC large
Height (km)
Speed (km/s)
/
Latitude / Longitude
Inclination (degrees)
Orbital Period (minutes)
Azimuth
Elevation
Range (km)
Doppler Factor

Next 0 passes for location: London (51.5072 / 0.1276)

Sorry there are no passes over London.